Station Historical Data
Daily Summary for September 4, 2017 Units:  English    Metric   Both
Next Day »
Daily Weekly Monthly Yearly Custom
  High: Low: Average:
Temperature: 92.8 °F 72.2 °F 81.1 °F
Dew Point: 63.8 °F 48.2 °F 54.9 °F
Humidity: 56% 30% 41%
Wind Speed: 11.0mph 0.0mph 1.6mph
Wind Gust: 12.0mph - -
Wind- - SSE
Pressure: 29.84 in 29.77 in -
Precipitation: 0.00 in    
Historical Graphs
 
 
Tabular Data for September 4, 2017
Time Temperature Dew Point Pressure Wind Wind Speed Wind Gust Humidity Rainfall Rate (Hourly) solar Conditions
00:03 81.3 °F 50.3 °F 29.84 in Calm   7.0 mph 34% 0.00 in 0.00 W/m2
00:08 81.3 °F 50.3 °F 29.83 in Calm   4.0 mph 34% 0.00 in 0.00 W/m2
00:13 81.3 °F 50.3 °F 29.83 in Calm   4.0 mph 34% 0.00 in 0.00 W/m2
00:18 81.2 °F 50.2 °F 29.83 in Calm   9.0 mph 34% 0.00 in 0.00 W/m2
00:23 81.2 °F 50.2 °F 29.83 in Calm     34% 0.00 in 0.00 W/m2
00:28 81.2 °F 50.2 °F 29.83 in Calm     34% 0.00 in 0.00 W/m2
00:33 81.2 °F 50.2 °F 29.84 in ESE 7.0 mph 11.0 mph 34% 0.00 in 0.00 W/m2
00:38 81.2 °F 50.2 °F 29.84 in East 1.0 mph 6.0 mph 34% 0.00 in 0.00 W/m2
00:43 81.2 °F 50.2 °F 29.84 in Calm   4.0 mph 34% 0.00 in 0.00 W/m2
00:48 81.2 °F 50.2 °F 29.84 in ESE 2.0 mph 4.0 mph 34% 0.00 in 0.00 W/m2
00:53 81.2 °F 50.2 °F 29.84 in East 1.0 mph 7.0 mph 34% 0.00 in 0.00 W/m2
00:58 81.2 °F 50.2 °F 29.83 in Calm   2.0 mph 34% 0.00 in 0.00 W/m2
01:03 81.1 °F 50.1 °F 29.83 in East 1.0 mph 2.0 mph 34% 0.00 in 0.00 W/m2
01:08 81.0 °F 50.0 °F 29.83 in East 1.0 mph 2.0 mph 34% 0.00 in 0.00 W/m2
01:14 80.9 °F 49.9 °F 29.82 in East 1.0 mph 1.0 mph 34% 0.00 in 0.00 W/m2
01:19 80.8 °F 49.8 °F 29.83 in Calm     34% 0.00 in 0.00 W/m2
01:24 80.7 °F 49.8 °F 29.82 in Calm     34% 0.00 in 0.00 W/m2
01:29 80.7 °F 50.5 °F 29.83 in Calm     35% 0.00 in 0.00 W/m2
01:34 80.7 °F 50.5 °F 29.83 in SE 2.0 mph 7.0 mph 35% 0.00 in 0.00 W/m2
01:39 80.7 °F 50.5 °F 29.84 in ESE 2.0 mph 9.0 mph 35% 0.00 in 0.00 W/m2
01:44 80.7 °F 49.8 °F 29.84 in SE 2.0 mph 8.0 mph 34% 0.00 in 0.00 W/m2
01:49 80.7 °F 49.8 °F 29.84 in SE 2.0 mph 9.0 mph 34% 0.00 in 0.00 W/m2
01:54 80.6 °F 49.7 °F 29.84 in Calm   9.0 mph 34% 0.00 in 0.00 W/m2
01:59 80.6 °F 49.7 °F 29.84 in Calm   5.0 mph 34% 0.00 in 0.00 W/m2
02:04 80.5 °F 49.6 °F 29.84 in SE 2.0 mph 9.0 mph 34% 0.00 in 0.00 W/m2
02:09 80.5 °F 50.4 °F 29.84 in Calm   7.0 mph 35% 0.00 in 0.00 W/m2
02:14 80.4 °F 50.3 °F 29.84 in Calm   2.0 mph 35% 0.00 in 0.00 W/m2
02:19 80.3 °F 50.2 °F 29.84 in Calm   6.0 mph 35% 0.00 in 0.00 W/m2
02:24 80.2 °F 50.1 °F 29.84 in SE 2.0 mph 7.0 mph 35% 0.00 in 0.00 W/m2
02:29 80.1 °F 50.0 °F 29.84 in Calm   7.0 mph 35% 0.00 in 0.00 W/m2
02:32 79.9 °F 50.6 °F 29.84 in Calm     36% 0.00 in 0.00 W/m2
02:37 79.7 °F 50.4 °F 29.84 in Calm     36% 0.00 in 0.00 W/m2
02:42 79.6 °F 50.3 °F 29.84 in Calm     36% 0.00 in 0.00 W/m2
02:47 79.5 °F 50.2 °F 29.84 in Calm   4.0 mph 36% 0.00 in 0.00 W/m2
02:52 79.4 °F 50.2 °F 29.84 in Calm   2.0 mph 36% 0.00 in 0.00 W/m2
02:57 79.2 °F 50.0 °F 29.84 in Calm   4.0 mph 36% 0.00 in 0.00 W/m2
03:02 79.1 °F 49.9 °F 29.84 in Calm   6.0 mph 36% 0.00 in 0.00 W/m2
03:03 79.1 °F 49.9 °F 29.84 in SSE 1.0 mph 6.0 mph 36% 0.00 in 0.00 W/m2
03:08 79.0 °F 50.5 °F 29.84 in SSE 2.0 mph 5.0 mph 37% 0.00 in 0.00 W/m2
03:13 78.8 °F 49.6 °F 29.84 in SSE 5.0 mph 5.0 mph 36% 0.00 in 0.00 W/m2
03:18 78.6 °F 50.2 °F 29.83 in Calm   4.0 mph 37% 0.00 in 0.00 W/m2
03:23 78.5 °F 50.1 °F 29.83 in Calm     37% 0.00 in 0.00 W/m2
03:28 78.3 °F 49.9 °F 29.83 in Calm     37% 0.00 in 0.00 W/m2
03:33 78.2 °F 50.5 °F 29.83 in Calm     38% 0.00 in 0.00 W/m2
03:38 78.0 °F 50.4 °F 29.83 in SE 6.0 mph 6.0 mph 38% 0.00 in 0.00 W/m2
03:43 77.9 °F 50.3 °F 29.82 in Calm   6.0 mph 38% 0.00 in 0.00 W/m2
03:48 77.7 °F 50.1 °F 29.82 in Calm   6.0 mph 38% 0.00 in 0.00 W/m2
03:53 77.5 °F 49.9 °F 29.82 in Calm   4.0 mph 38% 0.00 in 0.00 W/m2
03:58 77.5 °F 49.9 °F 29.82 in Calm   6.0 mph 38% 0.00 in 0.00 W/m2
04:03 77.4 °F 50.5 °F 29.82 in Calm   6.0 mph 39% 0.00 in 0.00 W/m2
04:08 77.3 °F 49.7 °F 29.82 in ESE 4.0 mph 7.0 mph 38% 0.00 in 0.00 W/m2
04:13 77.3 °F 49.7 °F 29.81 in ESE 6.0 mph 9.0 mph 38% 0.00 in 0.00 W/m2
04:18 77.2 °F 49.7 °F 29.81 in ESE 5.0 mph 7.0 mph 38% 0.00 in 0.00 W/m2
04:23 77.1 °F 49.6 °F 29.81 in East 5.0 mph 7.0 mph 38% 0.00 in 0.00 W/m2
04:28 77.0 °F 49.5 °F 29.80 in Calm   7.0 mph 38% 0.00 in 0.00 W/m2
04:33 76.9 °F 49.4 °F 29.80 in Calm   6.0 mph 38% 0.00 in 0.00 W/m2
04:38 76.9 °F 49.4 °F 29.80 in East 2.0 mph 7.0 mph 38% 0.00 in 0.00 W/m2
04:43 76.8 °F 49.3 °F 29.79 in Calm   7.0 mph 38% 0.00 in 0.00 W/m2
04:48 76.8 °F 49.3 °F 29.79 in East 2.0 mph 7.0 mph 38% 0.00 in 0.00 W/m2
04:53 76.8 °F 49.3 °F 29.79 in East 4.0 mph 6.0 mph 38% 0.00 in 0.00 W/m2
04:58 76.8 °F 48.6 °F 29.79 in Calm   5.0 mph 37% 0.00 in 0.00 W/m2
05:03 76.8 °F 48.6 °F 29.79 in Calm   4.0 mph 37% 0.00 in 0.00 W/m2
05:08 76.8 °F 48.6 °F 29.79 in ESE 4.0 mph 9.0 mph 37% 0.00 in 0.00 W/m2
05:13 76.8 °F 48.6 °F 29.79 in ESE 7.0 mph 9.0 mph 37% 0.00 in 0.00 W/m2
05:18 76.7 °F 48.5 °F 29.80 in ESE 6.0 mph 12.0 mph 37% 0.00 in 0.00 W/m2
05:23 76.7 °F 48.5 °F 29.79 in ESE 4.0 mph 9.0 mph 37% 0.00 in 0.00 W/m2
05:28 76.7 °F 48.5 °F 29.79 in Calm   9.0 mph 37% 0.00 in 0.00 W/m2
05:33 76.5 °F 48.3 °F 29.79 in East 4.0 mph 7.0 mph 37% 0.00 in 0.00 W/m2
05:38 76.4 °F 48.2 °F 29.79 in East 1.0 mph 12.0 mph 37% 0.00 in 0.00 W/m2
05:43 76.3 °F 48.8 °F 29.79 in East 6.0 mph 6.0 mph 38% 0.00 in 0.00 W/m2
05:48 76.1 °F 48.7 °F 29.79 in East 6.0 mph 8.0 mph 38% 0.00 in 0.00 W/m2
05:54 75.9 °F 48.5 °F 29.79 in East 2.0 mph 5.0 mph 38% 0.00 in 0.00 W/m2
05:59 75.8 °F 48.4 °F 29.79 in East 4.0 mph 4.0 mph 38% 0.00 in 0.00 W/m2
06:04 75.8 °F 48.4 °F 29.79 in East 4.0 mph 4.0 mph 38% 0.00 in 0.00 W/m2
06:09 75.7 °F 48.3 °F 29.79 in East 5.0 mph 6.0 mph 38% 0.00 in 0.00 W/m2
06:14 75.7 °F 48.3 °F 29.79 in Calm   5.0 mph 38% 0.00 in 0.00 W/m2
06:19 75.7 °F 48.3 °F 29.79 in Calm   6.0 mph 38% 0.00 in 0.00 W/m2
06:24 75.7 °F 48.3 °F 29.79 in Calm   4.0 mph 38% 0.00 in 0.00 W/m2
06:29 75.7 °F 48.3 °F 29.80 in East 2.0 mph 3.0 mph 38% 0.00 in 0.00 W/m2
06:34 75.7 °F 48.3 °F 29.80 in Calm   1.0 mph 38% 0.00 in 5.00 W/m2
06:39 75.8 °F 48.4 °F 29.80 in Calm   4.0 mph 38% 0.00 in 5.00 W/m2
06:44 75.8 °F 48.4 °F 29.80 in Calm     38% 0.00 in 9.00 W/m2
06:49 75.7 °F 48.3 °F 29.80 in Calm     38% 0.00 in 16.00 W/m2
06:54 75.7 °F 48.3 °F 29.80 in Calm     38% 0.00 in 21.00 W/m2
06:59 75.7 °F 48.3 °F 29.81 in Calm   1.0 mph 38% 0.00 in 26.00 W/m2
07:04 75.7 °F 48.3 °F 29.81 in East 3.0 mph 4.0 mph 38% 0.00 in 35.00 W/m2
07:09 75.8 °F 48.4 °F 29.81 in Calm   4.0 mph 38% 0.00 in 42.00 W/m2
07:14 75.7 °F 48.3 °F 29.80 in East 3.0 mph 5.0 mph 38% 0.00 in 53.00 W/m2
07:19 75.7 °F 49.0 °F 29.81 in East 3.0 mph 6.0 mph 39% 0.00 in 65.00 W/m2
07:24 75.7 °F 49.0 °F 29.81 in Calm   7.0 mph 39% 0.00 in 79.00 W/m2
07:29 75.6 °F 48.9 °F 29.81 in Calm   5.0 mph 39% 0.00 in 95.00 W/m2
07:34 75.6 °F 49.6 °F 29.81 in East 1.0 mph 5.0 mph 40% 0.00 in 111.00 W/m2
07:39 75.6 °F 49.6 °F 29.81 in East 1.0 mph 6.0 mph 40% 0.00 in 125.00 W/m2
07:44 75.5 °F 49.5 °F 29.81 in Calm   7.0 mph 40% 0.00 in 139.00 W/m2
07:49 75.5 °F 50.2 °F 29.81 in East 5.0 mph 6.0 mph 41% 0.00 in 158.00 W/m2
07:54 75.6 °F 50.3 °F 29.81 in East 1.0 mph 8.0 mph 41% 0.00 in 176.00 W/m2
07:59 75.6 °F 50.3 °F 29.81 in East 5.0 mph 6.0 mph 41% 0.00 in 195.00 W/m2
08:04 75.7 °F 50.4 °F 29.81 in East 1.0 mph 7.0 mph 41% 0.00 in 213.00 W/m2
08:09 75.8 °F 50.5 °F 29.81 in Calm   5.0 mph 41% 0.00 in 232.00 W/m2
08:14 75.9 °F 51.2 °F 29.81 in Calm   4.0 mph 42% 0.00 in 248.00 W/m2
08:19 76.0 °F 51.3 °F 29.81 in Calm   1.0 mph 42% 0.00 in 265.00 W/m2
08:24 76.1 °F 52.0 °F 29.81 in Calm     43% 0.00 in 281.00 W/m2
08:29 76.2 °F 52.1 °F 29.81 in Calm     43% 0.00 in 297.00 W/m2
08:34 76.4 °F 52.9 °F 29.81 in Calm     44% 0.00 in 313.00 W/m2
08:39 76.5 °F 54.2 °F 29.81 in Calm     46% 0.00 in 329.00 W/m2
08:44 76.6 °F 54.3 °F 29.81 in Calm     46% 0.00 in 346.00 W/m2
08:49 76.7 °F 54.4 °F 29.81 in Calm     46% 0.00 in 360.00 W/m2
08:54 76.9 °F 55.2 °F 29.81 in Calm     47% 0.00 in 338.00 W/m2
08:59 77.2 °F 55.4 °F 29.81 in Calm     47% 0.00 in 388.00 W/m2
09:04 77.5 °F 55.7 °F 29.81 in Calm     47% 0.00 in 403.00 W/m2
09:09 77.9 °F 56.1 °F 29.81 in Calm     47% 0.00 in 418.00 W/m2
09:14 78.2 °F 56.3 °F 29.81 in Calm     47% 0.00 in 432.00 W/m2
09:19 78.3 °F 55.2 °F 29.81 in Calm     45% 0.00 in 445.00 W/m2
09:24 78.7 °F 53.7 °F 29.81 in Calm     42% 0.00 in 464.00 W/m2
09:29 79.2 °F 52.8 °F 29.81 in Calm     40% 0.00 in 476.00 W/m2
09:34 79.7 °F 53.9 °F 29.81 in Calm     41% 0.00 in 489.00 W/m2
09:39 80.4 °F 53.2 °F 29.81 in Calm     39% 0.00 in 501.00 W/m2
09:45 81.0 °F 53.7 °F 29.81 in Calm     39% 0.00 in 517.00 W/m2
09:50 81.4 °F 54.8 °F 29.81 in Calm     40% 0.00 in 534.00 W/m2
09:55 81.8 °F 54.5 °F 29.82 in Calm     39% 0.00 in 547.00 W/m2
10:00 82.3 °F 55.6 °F 29.82 in Calm     40% 0.00 in 561.00 W/m2
10:05 82.7 °F 56.0 °F 29.81 in Calm   3.0 mph 40% 0.00 in 568.00 W/m2
10:10 83.0 °F 54.8 °F 29.82 in Calm   2.0 mph 38% 0.00 in 580.00 W/m2
10:15 83.4 °F 53.7 °F 29.82 in ENE 2.0 mph 4.0 mph 36% 0.00 in 589.00 W/m2
10:20 83.8 °F 53.3 °F 29.82 in Calm   5.0 mph 35% 0.00 in 598.00 W/m2
10:25 84.0 °F 54.2 °F 29.82 in Calm   3.0 mph 36% 0.00 in 612.00 W/m2
10:30 84.2 °F 55.1 °F 29.82 in Calm   5.0 mph 37% 0.00 in 622.00 W/m2
10:35 84.3 °F 55.2 °F 29.82 in NE 2.0 mph 2.0 mph 37% 0.00 in 633.00 W/m2
10:40 84.4 °F 54.6 °F 29.82 in NE 4.0 mph 4.0 mph 36% 0.00 in 647.00 W/m2
10:46 84.6 °F 54.7 °F 29.82 in Calm   3.0 mph 36% 0.00 in 657.00 W/m2
10:51 84.7 °F 54.8 °F 29.82 in NNE 2.0 mph 2.0 mph 36% 0.00 in 666.00 W/m2
10:56 84.8 °F 55.7 °F 29.82 in Calm   1.0 mph 37% 0.00 in 675.00 W/m2
11:01 84.9 °F 55.8 °F 29.82 in Calm     37% 0.00 in 686.00 W/m2
11:06 85.1 °F 56.7 °F 29.82 in Calm   1.0 mph 38% 0.00 in 698.00 W/m2
11:11 85.3 °F 56.1 °F 29.82 in North 2.0 mph 5.0 mph 37% 0.00 in 703.00 W/m2
11:16 85.5 °F 56.3 °F 29.82 in Calm     37% 0.00 in 714.00 W/m2
11:21 85.7 °F 56.5 °F 29.82 in Calm     37% 0.00 in 717.00 W/m2
11:26 85.9 °F 55.9 °F 29.82 in Calm   4.0 mph 36% 0.00 in 722.00 W/m2
11:31 86.2 °F 56.9 °F 29.82 in Calm     37% 0.00 in 737.00 W/m2
11:36 86.6 °F 55.7 °F 29.81 in Calm   1.0 mph 35% 0.00 in 751.00 W/m2
11:41 87.0 °F 56.1 °F 29.81 in Calm     35% 0.00 in 751.00 W/m2
11:46 87.3 °F 55.5 °F 29.81 in Calm   1.0 mph 34% 0.00 in 752.00 W/m2
11:51 87.5 °F 55.7 °F 29.81 in West 4.0 mph 7.0 mph 34% 0.00 in 758.00 W/m2
11:56 87.8 °F 56.0 °F 29.81 in West 3.0 mph 3.0 mph 34% 0.00 in 759.00 W/m2
12:01 88.2 °F 56.3 °F 29.81 in WSW 5.0 mph 7.0 mph 34% 0.00 in 761.00 W/m2
12:06 88.5 °F 56.6 °F 29.81 in WSW 1.0 mph 5.0 mph 34% 0.00 in 768.00 W/m2
12:11 88.8 °F 55.2 °F 29.81 in WSW 3.0 mph 4.0 mph 32% 0.00 in 773.00 W/m2
12:16 89.2 °F 56.4 °F 29.81 in WSW 6.0 mph 6.0 mph 33% 0.00 in 777.00 W/m2
12:21 89.5 °F 55.8 °F 29.81 in Calm     32% 0.00 in 780.00 W/m2
12:26 89.8 °F 55.2 °F 29.81 in SSW 8.0 mph 12.0 mph 31% 0.00 in 786.00 W/m2
12:31 90.2 °F 57.2 °F 29.81 in WSW 5.0 mph 7.0 mph 33% 0.00 in 782.00 W/m2
12:36 90.4 °F 56.6 °F 29.81 in WSW 6.0 mph 6.0 mph 32% 0.00 in 777.00 W/m2
12:41 90.6 °F 56.7 °F 29.80 in Calm     32% 0.00 in 789.00 W/m2
12:51 90.9 °F 56.1 °F 29.80 in Calm   7.0 mph 31% 0.00 in 791.00 W/m2
12:57 91.2 °F 56.4 °F 29.80 in WSW 5.0 mph 5.0 mph 31% 0.00 in 793.00 W/m2
13:02 91.5 °F 56.6 °F 29.80 in SW 6.0 mph 9.0 mph 31% 0.00 in 791.00 W/m2
13:07 91.7 °F 55.9 °F 29.80 in Calm   6.0 mph 30% 0.00 in 779.00 W/m2
13:12 91.8 °F 56.0 °F 29.80 in Calm   1.0 mph 30% 0.00 in 772.00 W/m2
13:17 91.7 °F 55.9 °F 29.80 in Calm   8.0 mph 30% 0.00 in 770.00 W/m2
13:22 91.9 °F 56.1 °F 29.80 in SW 3.0 mph 4.0 mph 30% 0.00 in 775.00 W/m2
13:27 91.9 °F 57.0 °F 29.80 in WNW 1.0 mph 7.0 mph 31% 0.00 in 772.00 W/m2
13:32 91.6 °F 55.8 °F 29.80 in SW 1.0 mph 11.0 mph 30% 0.00 in 777.00 W/m2
13:37 91.7 °F 56.8 °F 29.81 in SW 8.0 mph 10.0 mph 31% 0.00 in 775.00 W/m2
13:42 91.9 °F 56.1 °F 29.81 in West 2.0 mph 5.0 mph 30% 0.00 in 756.00 W/m2
13:47 91.9 °F 57.0 °F 29.80 in Calm   3.0 mph 31% 0.00 in 751.00 W/m2
13:52 92.0 °F 57.1 °F 29.81 in West 7.0 mph 7.0 mph 31% 0.00 in 766.00 W/m2
13:57 92.2 °F 57.2 °F 29.80 in Calm   5.0 mph 31% 0.00 in 758.00 W/m2
14:02 92.1 °F 58.0 °F 29.81 in Calm   9.0 mph 32% 0.00 in 766.00 W/m2
14:07 92.2 °F 58.1 °F 29.80 in WSW 3.0 mph 12.0 mph 32% 0.00 in 780.00 W/m2
14:12 92.5 °F 58.4 °F 29.80 in WSW 7.0 mph 10.0 mph 32% 0.00 in 775.00 W/m2
14:17 92.8 °F 58.6 °F 29.80 in SW 5.0 mph 8.0 mph 32% 0.00 in 772.00 W/m2
14:22 92.8 °F 59.5 °F 29.80 in Calm   10.0 mph 33% 0.00 in 754.00 W/m2
14:27 92.4 °F 59.2 °F 29.80 in WSW 5.0 mph 9.0 mph 33% 0.00 in 759.00 W/m2
14:32 92.1 °F 59.7 °F 29.80 in Calm   10.0 mph 34% 0.00 in 784.00 W/m2
14:37 91.5 °F 59.2 °F 29.80 in Calm   8.0 mph 34% 0.00 in 812.00 W/m2
14:42 90.7 °F 59.3 °F 29.80 in WSW 3.0 mph 10.0 mph 35% 0.00 in 283.00 W/m2
14:47 90.4 °F 59.0 °F 29.80 in SW 6.0 mph 7.0 mph 35% 0.00 in 258.00 W/m2
14:52 90.4 °F 59.8 °F 29.81 in WSW 4.0 mph 9.0 mph 36% 0.00 in 243.00 W/m2
14:57 90.1 °F 59.6 °F 29.80 in SW 1.0 mph 7.0 mph 36% 0.00 in 220.00 W/m2
15:02 89.4 °F 59.7 °F 29.81 in Calm   8.0 mph 37% 0.00 in 216.00 W/m2
15:07 89.0 °F 59.4 °F 29.81 in Calm   5.0 mph 37% 0.00 in 202.00 W/m2
15:12 88.7 °F 59.1 °F 29.81 in Calm   8.0 mph 37% 0.00 in 183.00 W/m2
15:17 88.4 °F 59.6 °F 29.81 in Calm   4.0 mph 38% 0.00 in 181.00 W/m2
15:22 88.1 °F 59.3 °F 29.81 in SW 4.0 mph 8.0 mph 38% 0.00 in 183.00 W/m2
15:27 87.9 °F 59.9 °F 29.81 in SW 7.0 mph 7.0 mph 39% 0.00 in 181.00 W/m2
15:33 87.8 °F 59.8 °F 29.81 in Calm   7.0 mph 39% 0.00 in 190.00 W/m2
15:38 87.5 °F 60.2 °F 29.81 in Calm   7.0 mph 40% 0.00 in 199.00 W/m2
15:43 87.1 °F 59.9 °F 29.81 in Calm   6.0 mph 40% 0.00 in 204.00 W/m2
15:44 87.1 °F 59.9 °F 29.81 in Calm   6.0 mph 40% 0.00 in 206.00 W/m2
15:49 86.8 °F 61.0 °F 29.81 in Calm   1.0 mph 42% 0.00 in 227.00 W/m2
15:54 86.5 °F 61.4 °F 29.81 in Calm   2.0 mph 43% 0.00 in 322.00 W/m2
15:59 86.3 °F 60.5 °F 29.81 in Calm   3.0 mph 42% 0.00 in 563.00 W/m2
16:04 86.2 °F 59.8 °F 29.80 in Calm     41% 0.00 in 561.00 W/m2
16:09 86.2 °F 59.8 °F 29.80 in Calm   3.0 mph 41% 0.00 in 297.00 W/m2
16:14 86.3 °F 59.8 °F 29.80 in Calm   1.0 mph 41% 0.00 in 531.00 W/m2
16:19 86.4 °F 59.9 °F 29.80 in Calm   1.0 mph 41% 0.00 in 323.00 W/m2
16:24 86.6 °F 60.8 °F 29.80 in Calm     42% 0.00 in 454.00 W/m2
16:29 86.7 °F 60.9 °F 29.80 in Calm   1.0 mph 42% 0.00 in 454.00 W/m2
16:34 86.9 °F 60.4 °F 29.80 in Calm   1.0 mph 41% 0.00 in 438.00 W/m2
16:39 87.0 °F 60.5 °F 29.80 in SSW 8.0 mph 8.0 mph 41% 0.00 in 425.00 W/m2
16:44 87.2 °F 60.0 °F 29.80 in South 2.0 mph 7.0 mph 40% 0.00 in 401.00 W/m2
16:49 87.3 °F 60.0 °F 29.80 in Calm   3.0 mph 40% 0.00 in 292.00 W/m2
16:54 87.3 °F 60.0 °F 29.80 in Calm   2.0 mph 40% 0.00 in 366.00 W/m2
16:59 87.4 °F 60.8 °F 29.81 in Calm   1.0 mph 41% 0.00 in 352.00 W/m2
17:04 87.4 °F 60.1 °F 29.80 in Calm   3.0 mph 40% 0.00 in 359.00 W/m2
17:09 87.3 °F 60.0 °F 29.80 in Calm     40% 0.00 in 378.00 W/m2
17:14 87.2 °F 60.7 °F 29.80 in Calm     41% 0.00 in 195.00 W/m2
17:19 86.8 °F 61.0 °F 29.80 in Calm     42% 0.00 in 176.00 W/m2
17:24 86.5 °F 62.0 °F 29.81 in Calm     44% 0.00 in 151.00 W/m2
17:29 86.3 °F 61.8 °F 29.80 in Calm     44% 0.00 in 128.00 W/m2
17:34 86.0 °F 61.6 °F 29.80 in Calm     44% 0.00 in 114.00 W/m2
17:39 85.7 °F 62.6 °F 29.80 in Calm     46% 0.00 in 88.00 W/m2
17:44 85.4 °F 62.3 °F 29.79 in Calm     46% 0.00 in 83.00 W/m2
17:49 85.1 °F 62.6 °F 29.79 in Calm     47% 0.00 in 116.00 W/m2
17:54 84.8 °F 63.5 °F 29.79 in Calm     49% 0.00 in 98.00 W/m2
17:59 84.3 °F 63.7 °F 29.79 in Calm   1.0 mph 50% 0.00 in 98.00 W/m2
18:04 83.9 °F 63.8 °F 29.79 in Calm     51% 0.00 in 162.00 W/m2
18:09 83.6 °F 63.0 °F 29.79 in Calm     50% 0.00 in 98.00 W/m2
18:14 83.2 °F 63.8 °F 29.79 in Calm     52% 0.00 in 95.00 W/m2
18:19 82.9 °F 62.4 °F 29.79 in Calm     50% 0.00 in 60.00 W/m2
18:24 82.7 °F 62.2 °F 29.79 in Calm     50% 0.00 in 51.00 W/m2
18:29 82.6 °F 63.2 °F 29.78 in Calm     52% 0.00 in 58.00 W/m2
18:34 82.4 °F 63.0 °F 29.78 in Calm     52% 0.00 in 42.00 W/m2
18:39 82.0 °F 62.7 °F 29.78 in Calm     52% 0.00 in 35.00 W/m2
18:44 81.5 °F 63.3 °F 29.78 in Calm     54% 0.00 in 30.00 W/m2
18:49 81.2 °F 63.0 °F 29.78 in Calm     54% 0.00 in 26.00 W/m2
18:54 80.9 °F 63.2 °F 29.77 in Calm     55% 0.00 in 23.00 W/m2
18:59 80.3 °F 62.7 °F 29.78 in Calm   1.0 mph 55% 0.00 in 21.00 W/m2
19:04 79.9 °F 62.3 °F 29.78 in Calm   1.0 mph 55% 0.00 in 21.00 W/m2
19:09 79.8 °F 61.7 °F 29.78 in Calm     54% 0.00 in 19.00 W/m2
19:14 79.6 °F 62.0 °F 29.78 in Calm     55% 0.00 in 14.00 W/m2
19:19 79.2 °F 61.7 °F 29.78 in Calm   1.0 mph 55% 0.00 in 9.00 W/m2
19:24 79.1 °F 61.6 °F 29.78 in Calm     55% 0.00 in 5.00 W/m2
19:29 79.0 °F 61.5 °F 29.78 in Calm     55% 0.00 in 0.00 W/m2
19:39 79.0 °F 61.5 °F 29.79 in Calm   1.0 mph 55% 0.00 in 0.00 W/m2
19:44 79.0 °F 62.0 °F 29.79 in Calm   1.0 mph 56% 0.00 in 0.00 W/m2
19:49 78.9 °F 61.4 °F 29.79 in Calm   4.0 mph 55% 0.00 in 0.00 W/m2
19:55 78.9 °F 60.9 °F 29.79 in South 5.0 mph 6.0 mph 54% 0.00 in 0.00 W/m2
20:00 78.8 °F 60.8 °F 29.79 in South 1.0 mph 6.0 mph 54% 0.00 in 0.00 W/m2
20:04 78.7 °F 60.7 °F 29.80 in South 2.0 mph 8.0 mph 54% 0.00 in 0.00 W/m2
20:10 78.5 °F 60.5 °F 29.80 in South 2.0 mph 7.0 mph 54% 0.00 in 0.00 W/m2
20:15 78.3 °F 59.8 °F 29.80 in South 9.0 mph 11.0 mph 53% 0.00 in 0.00 W/m2
20:20 78.0 °F 59.5 °F 29.80 in South 11.0 mph 11.0 mph 53% 0.00 in 0.00 W/m2
20:22 77.9 °F 58.9 °F 29.81 in South 2.0 mph 10.0 mph 52% 0.00 in 0.00 W/m2
20:24 77.8 °F 58.8 °F 29.80 in SSE 9.0 mph 10.0 mph 52% 0.00 in 0.00 W/m2
20:29 77.6 °F 58.6 °F 29.81 in South 4.0 mph 10.0 mph 52% 0.00 in 0.00 W/m2
20:34 77.3 °F 58.3 °F 29.81 in SSE 6.0 mph 9.0 mph 52% 0.00 in 0.00 W/m2
20:39 77.1 °F 57.6 °F 29.81 in SSE 6.0 mph 9.0 mph 51% 0.00 in 0.00 W/m2
20:44 77.0 °F 57.5 °F 29.81 in South 4.0 mph 8.0 mph 51% 0.00 in 0.00 W/m2
20:49 76.8 °F 57.3 °F 29.81 in South 4.0 mph 7.0 mph 51% 0.00 in 0.00 W/m2
20:54 76.6 °F 57.1 °F 29.81 in South 4.0 mph 5.0 mph 51% 0.00 in 0.00 W/m2
20:59 76.4 °F 57.0 °F 29.81 in Calm   7.0 mph 51% 0.00 in 0.00 W/m2
21:04 76.3 °F 56.9 °F 29.81 in South 4.0 mph 7.0 mph 51% 0.00 in 0.00 W/m2
21:09 76.0 °F 56.6 °F 29.81 in Calm   7.0 mph 51% 0.00 in 0.00 W/m2
21:14 75.8 °F 56.4 °F 29.81 in South 2.0 mph 6.0 mph 51% 0.00 in 0.00 W/m2
21:19 75.7 °F 56.8 °F 29.80 in Calm   4.0 mph 52% 0.00 in 0.00 W/m2
21:24 75.5 °F 56.1 °F 29.81 in South 5.0 mph 7.0 mph 51% 0.00 in 0.00 W/m2
21:29 75.4 °F 56.6 °F 29.81 in South 6.0 mph 8.0 mph 52% 0.00 in 0.00 W/m2
21:34 75.2 °F 56.4 °F 29.82 in SSE 6.0 mph 9.0 mph 52% 0.00 in 0.00 W/m2
21:39 75.0 °F 56.2 °F 29.82 in SSE 7.0 mph 10.0 mph 52% 0.00 in 0.00 W/m2
21:44 74.8 °F 56.0 °F 29.82 in Calm   9.0 mph 52% 0.00 in 0.00 W/m2
21:49 74.6 °F 55.8 °F 29.82 in SSE 4.0 mph 11.0 mph 52% 0.00 in 0.00 W/m2
21:54 74.4 °F 55.7 °F 29.82 in SSE 1.0 mph 8.0 mph 52% 0.00 in 0.00 W/m2
21:59 74.3 °F 55.6 °F 29.82 in Calm   8.0 mph 52% 0.00 in 0.00 W/m2
22:04 74.2 °F 55.5 °F 29.82 in Calm   8.0 mph 52% 0.00 in 0.00 W/m2
22:09 74.1 °F 55.4 °F 29.82 in Calm   2.0 mph 52% 0.00 in 0.00 W/m2
22:14 74.0 °F 55.8 °F 29.82 in Calm   8.0 mph 53% 0.00 in 0.00 W/m2
22:19 73.9 °F 55.7 °F 29.82 in SSE 6.0 mph 7.0 mph 53% 0.00 in 0.00 W/m2
22:24 73.8 °F 55.6 °F 29.82 in Calm   8.0 mph 53% 0.00 in 0.00 W/m2
22:29 73.6 °F 55.4 °F 29.82 in SSE 4.0 mph 8.0 mph 53% 0.00 in 0.00 W/m2
22:34 73.5 °F 55.3 °F 29.83 in SSE 2.0 mph 8.0 mph 53% 0.00 in 0.00 W/m2
22:39 73.4 °F 55.2 °F 29.83 in Calm   7.0 mph 53% 0.00 in 0.00 W/m2
22:44 73.3 °F 55.2 °F 29.83 in Calm   7.0 mph 53% 0.00 in 0.00 W/m2
22:49 73.3 °F 55.2 °F 29.83 in SSE 4.0 mph 8.0 mph 53% 0.00 in 0.00 W/m2
22:54 73.2 °F 55.1 °F 29.83 in SSE 4.0 mph 9.0 mph 53% 0.00 in 0.00 W/m2
22:59 73.1 °F 55.0 °F 29.83 in SSE 7.0 mph 8.0 mph 53% 0.00 in 0.00 W/m2
23:04 73.1 °F 55.0 °F 29.83 in SSE 6.0 mph 7.0 mph 53% 0.00 in 0.00 W/m2
23:09 73.0 °F 54.9 °F 29.83 in Calm   7.0 mph 53% 0.00 in 0.00 W/m2
23:14 73.0 °F 55.4 °F 29.83 in SSE 5.0 mph 10.0 mph 54% 0.00 in 0.00 W/m2
23:19 72.9 °F 55.3 °F 29.83 in SSE 5.0 mph 10.0 mph 54% 0.00 in 0.00 W/m2
23:24 72.8 °F 55.2 °F 29.83 in SE 5.0 mph 10.0 mph 54% 0.00 in 0.00 W/m2
23:29 72.7 °F 55.1 °F 29.83 in Calm   8.0 mph 54% 0.00 in 0.00 W/m2
23:34 72.6 °F 55.5 °F 29.83 in SE 7.0 mph 7.0 mph 55% 0.00 in 0.00 W/m2
23:40 72.5 °F 55.4 °F 29.83 in SSE 4.0 mph 6.0 mph 55% 0.00 in 0.00 W/m2
23:44 72.4 °F 55.3 °F 29.83 in SSE 5.0 mph 8.0 mph 55% 0.00 in 0.00 W/m2
23:50 72.3 °F 55.2 °F 29.83 in SSE 5.0 mph 7.0 mph 55% 0.00 in 0.00 W/m2
23:55 72.2 °F 55.7 °F 29.83 in SSE 7.0 mph 7.0 mph 56% 0.00 in 0.00 W/m2
Foresthill Weather
 WU-history PHP script courtesy of   Juneau County Weather.
powered by Cumulus v1.9.3 (1059)
Ambient Weather VWS v14.00
Top Contact Website Map Copyright © 2007 - 2018 Foresthillweather.com Never base important decisions on this or any weather information obtained from the Internet